Weather Roundup
Issued by NWS Chicago, IL

Home | Current Version | Previous Version | Text Only | Print | Product List | Glossary Off
Versions: 1 2 3 4 5 6 7 8 9 10 11 12 13 14 15 16 17 18 19 20 21 22 23 24 25 26 27 28 29 30 31 32 33 34 35 36 37 38 39 40 41 42 43 44 45 46 47 48 49 50

531
NZUS59 KLOT 171903
HRRLOT

CHICAGO AREA WEATHER ROUNDUP
NATIONAL WEATHER SERVICE CHICAGO/ROMEOVILLE IL
100 PM CST SUN DEC 17 2017

NOTE: "FAIR" INDICATES FEW OR NO CLOUDS BELOW 12,000 FEET WITH NO
SIGNIFICANT WEATHER AND/OR OBSTRUCTIONS TO VISIBILITY.

* THESE STATIONS ARE NOT UNDER NWS QUALITY CONTROL. THEY ALSO MAY NOT
  REPORT WEATHER SUCH AS PRECIPITATION OR FOG.

ILZ005-006-012>014-019>023-172000-
NORTHEAST ILLINOIS

CITY           SKY/WX    TMP DP  RH WIND       PRES   REMARKS
OHARE          CLOUDY    40  34  79 CALM      30.00F
MIDWAY         CLOUDY    42  32  67 S6        30.00F
AURORA         CLOUDY    40  33  76 CALM      29.99F
LANSING*       PTSUNNY   46  35  63 SW12      30.01F
JOLIET*        CLOUDY    47  32  55 SW10      30.00F
WAUKEGAN       CLOUDY    36  33  89 CALM      30.00F FOG
DUPAGE AIRPORT CLOUDY    39  35  86 S5        29.99F FOG
WHEELING       CLOUDY    40  36  86 CALM      30.01F
KANKAKEE*      CLOUDY    45  33  63 SW8       30.03F
MORRIS*        PTSUNNY   47  31  54 SW9       29.99F
LEWIS AIRPORT* CLOUDY    44  32  63 SW8       30.00F
NORTHERLY ISL    N/A     40  30  68 S6          N/A
$$

WIZ051-052-058>065-066-070>072-172000-
SOUTHEAST WISCONSIN

CITY           SKY/WX    TMP DP  RH WIND       PRES   REMARKS
MILWAUKEE      CLOUDY    35  32  88 E7        30.02F FOG     WCI  29
KENOSHA*       CLOUDY    36  32  85 E7        30.01F FOG
RACINE*        CLOUDY    35  32  88 E5        30.03F FOG     WCI  31
WAUKESHA       CLOUDY    30  28  93 E7        30.03F FOG     WCI  23
WEST BEND      CLOUDY    30  30 100 CALM      30.03F FOG
$$

INZ001>003-010>013-019-020-172000-
NORTHWEST INDIANA

CITY           SKY/WX    TMP DP  RH WIND       PRES   REMARKS
GARY*          PTSUNNY   46  30  53 SW14      30.02F
MICHIGAN CITY* NOT AVBL
RENSSELAER*    NOT AVBL
VALPARAISO     CLOUDY    45  33  63 SW13      30.02F
$$

LMZ740>746-172000-
SOUTHERN LAKE MICHIGAN

STATION/POSITION TIME  SKY/WX   TEMP WIND        PRES    VSBY
                                AIR  DIR/SP/G
                 (UTC)          (F)  (DEG/KT/KT) (MB)    (MI)
HARRISON CRIB    1840            38  190/  7/  8   N/A
BURNHAM HARBOR   1900            40   CALM  /  7   N/A
CALUMET HARBOR   1830            38  200/  7/  9 1016.0F
BURNS HARBOR     1840            42  210/  8/ 11 1017.3F
MICHIGAN CITY    1840            39  160/  7/  9   N/A
$$

ABBREVIATIONS USED IN REMARKS
   TC - TEMPERATURE IN CELSIUS
  WCI - WIND CHILL INDEX
   HX - HEAT INDEX
  VSB - VISIBILITY
$$




USA.gov is the U.S. government's official web portal to all federal, state and local government web resources and services.